Orbital Elements at Epoch 2459200.5 (2020-Dec-17.0) TDB
Reference: JPL 16 (heliocentric ecliptic J2000)
Element | Value | Uncertainty (1-sigma) | Units |
e | .2251809705414817 | 6.005e-08 | |
a | 2.416692599813574 | 1.6801e-08 | au |
q | 1.872499414687136 | 1.3839e-07 | au |
i | 1.674528602487061 | 5.5084e-06 | deg |
node | 200.2884940138791 | 0.00014373 | deg |
peri | 166.9279408681723 | 0.00014427 | deg |
M | 265.0685591729844 | 2.0037e-05 | deg |
tp | 2459562.357948660989 (2021-Dec-13.85794866) | 7.9706e-05 | TDB |
period | 1372.241486941427 3.76 | 1.431e-05 3.918e-08 | d yr |
n | .2623444950658063 | 2.7358e-09 | deg/d |
Q | 2.960885784940011 | 2.0584e-08 | au |
|
| | Orbit Determination Parameters
Additional Information
|